カタログに戻る

SCOUT B DEB

LostUNKNOWN
NORAD 29167·DEBRIS·🇺🇸 United States

打ち上げ Aug 10, 1965 から Wallops Flight Facility

Loading…

次のパス (今後24時間)

TLE

古いSource: Space-Track

元期: Aug 20, 2021, 01:42 UTC

1 29167U 65063R   21232.07119748 -.00000285  00000-0 -17384-2 0  9994
2 29167  69.2379 161.0900 0721641 343.3848  28.2122 11.88382513601176

AllMySatでSCOUT B DEBをリアルタイム追跡

Download on the App Store